Time,TemperatureF,DewpointF,PressureIn,WindDirection,WindDirectionDegrees,WindSpeedMPH,WindSpeedGustMPH,Humidity,HourlyPrecipIn,Conditions,Clouds,dailyrainin,SolarRadiationWatts/m^2,SoftwareType,DateUTC
2013-08-18 00:21:00,60.0,31.0,-100.00,SSW,212,5.0,6.0,33,0.00,,,0.00,1.000000,,2013-08-18 06:21:00,
2013-08-18 00:31:00,60.0,31.0,-100.00,SSW,212,5.0,6.0,33,0.00,,,0.00,1.000000,,2013-08-18 06:31:00,
2013-08-18 00:42:00,60.0,31.0,-100.00,SSW,212,5.0,6.0,33,0.00,,,0.00,1.000000,,2013-08-18 06:42:00,
2013-08-18 00:52:00,60.0,31.0,-100.00,SSW,212,5.0,6.0,33,0.00,,,0.00,1.000000,,2013-08-18 06:52:00,
2013-08-18 01:21:00,58.0,31.0,-100.00,SSW,200,4.0,7.0,36,0.00,,,0.00,1.000000,,2013-08-18 07:21:00,
2013-08-18 01:31:00,58.0,31.0,-100.00,SSW,200,4.0,7.0,36,0.00,,,0.00,1.000000,,2013-08-18 07:31:00,
2013-08-18 01:42:00,58.0,31.0,-100.00,SSW,200,4.0,7.0,36,0.00,,,0.00,1.000000,,2013-08-18 07:42:00,
2013-08-18 01:52:00,58.0,31.0,-100.00,SSW,200,4.0,7.0,36,0.00,,,0.00,1.000000,,2013-08-18 07:52:00,
2013-08-18 02:21:00,57.0,32.0,-100.00,SSW,205,3.0,7.0,39,0.00,,,0.00,1.000000,,2013-08-18 08:21:00,
2013-08-18 02:32:00,57.0,32.0,-100.00,SSW,205,3.0,7.0,39,0.00,,,0.00,1.000000,,2013-08-18 08:32:00,
2013-08-18 02:41:00,57.0,32.0,-100.00,SSW,205,3.0,7.0,39,0.00,,,0.00,1.000000,,2013-08-18 08:41:00,
2013-08-18 02:52:00,57.0,32.0,-100.00,SSW,205,3.0,7.0,39,0.00,,,0.00,1.000000,,2013-08-18 08:52:00,
2013-08-18 03:21:00,54.0,33.0,-100.00,WNW,287,1.0,4.0,45,0.00,,,0.00,1.000000,,2013-08-18 09:21:00,
2013-08-18 03:33:00,54.0,33.0,-100.00,WNW,287,1.0,4.0,45,0.00,,,0.00,1.000000,,2013-08-18 09:33:00,
2013-08-18 03:43:00,54.0,33.0,-100.00,WNW,287,1.0,4.0,45,0.00,,,0.00,1.000000,,2013-08-18 09:43:00,
2013-08-18 03:53:00,54.0,33.0,-100.00,WNW,287,1.0,4.0,45,0.00,,,0.00,1.000000,,2013-08-18 09:53:00,
2013-08-18 04:22:00,49.0,33.0,-100.00,NW,319,2.0,6.0,53,0.00,,,0.00,1.000000,,2013-08-18 10:22:00,
2013-08-18 04:32:00,49.0,33.0,-100.00,NW,319,2.0,6.0,53,0.00,,,0.00,1.000000,,2013-08-18 10:32:00,
2013-08-18 04:42:00,49.0,33.0,-100.00,NW,319,2.0,6.0,53,0.00,,,0.00,1.000000,,2013-08-18 10:42:00,
2013-08-18 04:52:00,49.0,33.0,-100.00,NW,319,2.0,6.0,53,0.00,,,0.00,1.000000,,2013-08-18 10:52:00,
2013-08-18 05:22:00,49.0,33.0,-100.00,NNE,16,2.0,7.0,53,0.00,,,0.00,1.000000,,2013-08-18 11:22:00,
2013-08-18 05:32:00,49.0,33.0,-100.00,NNE,16,2.0,7.0,53,0.00,,,0.00,1.000000,,2013-08-18 11:32:00,
2013-08-18 05:42:00,49.0,33.0,-100.00,NNE,16,2.0,7.0,53,0.00,,,0.00,1.000000,,2013-08-18 11:42:00,
2013-08-18 05:51:00,49.0,33.0,-100.00,NNE,16,2.0,7.0,53,0.00,,,0.00,1.000000,,2013-08-18 11:51:00,
2013-08-18 06:21:00,48.0,35.0,-100.00,NNW,332,2.0,6.0,60,0.00,,,0.00,1.000000,,2013-08-18 12:21:00,
2013-08-18 06:31:00,48.0,35.0,-100.00,NNW,332,2.0,6.0,60,0.00,,,0.00,1.000000,,2013-08-18 12:31:00,
2013-08-18 06:41:00,48.0,35.0,-100.00,NNW,332,2.0,6.0,60,0.00,,,0.00,1.000000,,2013-08-18 12:41:00,
2013-08-18 06:52:00,48.0,35.0,-100.00,NNW,332,2.0,6.0,60,0.00,,,0.00,1.000000,,2013-08-18 12:52:00,
2013-08-18 07:21:00,45.0,36.0,-100.00,NNE,21,2.0,6.0,71,0.00,,,0.00,7.000000,,2013-08-18 13:21:00,
2013-08-18 07:32:00,45.0,36.0,-100.00,NNE,21,2.0,6.0,71,0.00,,,0.00,7.000000,,2013-08-18 13:32:00,
2013-08-18 07:42:00,45.0,36.0,-100.00,NNE,21,2.0,6.0,71,0.00,,,0.00,7.000000,,2013-08-18 13:42:00,
2013-08-18 07:52:00,45.0,36.0,-100.00,NNE,21,2.0,6.0,71,0.00,,,0.00,7.000000,,2013-08-18 13:52:00,
2013-08-18 08:42:00,56.0,36.0,-100.00,SSW,199,3.0,5.0,46,0.00,,,0.00,115.000000,,2013-08-18 14:42:00,
2013-08-18 08:53:00,56.0,36.0,-100.00,SSW,199,3.0,5.0,46,0.00,,,0.00,115.000000,,2013-08-18 14:53:00,
2013-08-18 09:22:00,61.0,36.0,-100.00,South,179,5.0,7.0,39,0.00,,,0.00,289.000000,,2013-08-18 15:22:00,
2013-08-18 09:33:00,61.0,36.0,-100.00,South,179,5.0,7.0,39,0.00,,,0.00,289.000000,,2013-08-18 15:33:00,
2013-08-18 09:43:00,61.0,36.0,-100.00,South,179,5.0,7.0,39,0.00,,,0.00,289.000000,,2013-08-18 15:43:00,
2013-08-18 09:53:00,61.0,36.0,-100.00,South,179,5.0,7.0,39,0.00,,,0.00,289.000000,,2013-08-18 15:53:00,
2013-08-18 10:23:00,68.0,36.0,-100.00,SSW,203,3.0,6.0,31,0.00,,,0.00,466.000000,,2013-08-18 16:23:00,
2013-08-18 10:33:00,68.0,36.0,-100.00,SSW,203,3.0,6.0,31,0.00,,,0.00,466.000000,,2013-08-18 16:33:00,
2013-08-18 10:42:00,68.0,36.0,-100.00,SSW,203,3.0,6.0,31,0.00,,,0.00,466.000000,,2013-08-18 16:42:00,
2013-08-18 10:52:00,68.0,36.0,-100.00,SSW,203,3.0,6.0,31,0.00,,,0.00,466.000000,,2013-08-18 16:52:00,
2013-08-18 11:23:00,74.0,38.0,-100.00,SSW,204,5.0,9.0,27,0.00,,,0.00,629.000000,,2013-08-18 17:23:00,
2013-08-18 11:33:00,74.0,38.0,-100.00,SSW,204,5.0,9.0,27,0.00,,,0.00,629.000000,,2013-08-18 17:33:00,
2013-08-18 11:42:00,74.0,38.0,-100.00,SSW,204,5.0,9.0,27,0.00,,,0.00,629.000000,,2013-08-18 17:42:00,
2013-08-18 11:52:00,74.0,38.0,-100.00,SSW,204,5.0,9.0,27,0.00,,,0.00,629.000000,,2013-08-18 17:52:00,
2013-08-18 12:21:00,78.0,37.0,-100.00,SSW,197,7.0,12.0,23,0.00,,,0.00,760.000000,,2013-08-18 18:21:00,
2013-08-18 12:32:00,78.0,37.0,-100.00,SSW,197,7.0,12.0,23,0.00,,,0.00,760.000000,,2013-08-18 18:32:00,
2013-08-18 12:42:00,78.0,37.0,-100.00,SSW,197,7.0,12.0,23,0.00,,,0.00,760.000000,,2013-08-18 18:42:00,
2013-08-18 12:52:00,78.0,37.0,-100.00,SSW,197,7.0,12.0,23,0.00,,,0.00,760.000000,,2013-08-18 18:52:00,
2013-08-18 13:22:00,83.0,36.0,-100.00,SSE,156,6.0,13.0,19,0.00,,,0.00,846.000000,,2013-08-18 19:22:00,
2013-08-18 13:31:00,83.0,36.0,-100.00,SSE,156,6.0,13.0,19,0.00,,,0.00,846.000000,,2013-08-18 19:31:00,
2013-08-18 13:41:00,83.0,36.0,-100.00,SSE,156,6.0,13.0,19,0.00,,,0.00,846.000000,,2013-08-18 19:41:00,
2013-08-18 13:52:00,83.0,36.0,-100.00,SSE,156,6.0,13.0,19,0.00,,,0.00,846.000000,,2013-08-18 19:52:00,
2013-08-18 14:22:00,86.0,31.0,-100.00,NW,304,5.0,28.0,14,0.00,,,0.00,872.000000,,2013-08-18 20:22:00,
2013-08-18 14:32:00,86.0,31.0,-100.00,NW,304,5.0,28.0,14,0.00,,,0.00,872.000000,,2013-08-18 20:32:00,
2013-08-18 14:42:00,86.0,31.0,-100.00,NW,304,5.0,28.0,14,0.00,,,0.00,872.000000,,2013-08-18 20:42:00,
2013-08-18 14:52:00,86.0,31.0,-100.00,NW,304,5.0,28.0,14,0.00,,,0.00,872.000000,,2013-08-18 20:52:00,
2013-08-18 15:21:00,86.0,31.0,-100.00,SSW,210,9.0,17.0,14,0.00,,,0.00,842.000000,,2013-08-18 21:21:00,
2013-08-18 15:32:00,86.0,31.0,-100.00,SSW,210,9.0,17.0,14,0.00,,,0.00,842.000000,,2013-08-18 21:32:00,
2013-08-18 15:42:00,86.0,31.0,-100.00,SSW,210,9.0,17.0,14,0.00,,,0.00,842.000000,,2013-08-18 21:42:00,
2013-08-18 15:53:00,86.0,31.0,-100.00,SSW,210,9.0,17.0,14,0.00,,,0.00,842.000000,,2013-08-18 21:53:00,
2013-08-18 16:23:00,86.0,31.0,-100.00,WSW,251,9.0,21.0,14,0.00,,,0.00,756.000000,,2013-08-18 22:23:00,
2013-08-18 16:34:00,86.0,31.0,-100.00,WSW,251,9.0,21.0,14,0.00,,,0.00,756.000000,,2013-08-18 22:34:00,
2013-08-18 16:42:00,86.0,31.0,-100.00,WSW,251,9.0,21.0,14,0.00,,,0.00,756.000000,,2013-08-18 22:42:00,
2013-08-18 16:52:00,86.0,31.0,-100.00,WSW,251,9.0,21.0,14,0.00,,,0.00,756.000000,,2013-08-18 22:52:00,
2013-08-18 17:22:00,85.0,30.0,-100.00,SSW,205,7.0,19.0,14,0.00,,,0.00,602.000000,,2013-08-18 23:22:00,
2013-08-18 17:33:00,85.0,30.0,-100.00,SSW,205,7.0,19.0,14,0.00,,,0.00,602.000000,,2013-08-18 23:33:00,
2013-08-18 17:42:00,85.0,30.0,-100.00,SSW,205,7.0,19.0,14,0.00,,,0.00,602.000000,,2013-08-18 23:42:00,
2013-08-18 17:52:00,85.0,30.0,-100.00,SSW,205,7.0,19.0,14,0.00,,,0.00,602.000000,,2013-08-18 23:52:00,
2013-08-18 18:21:00,85.0,29.0,-100.00,WNW,303,6.0,16.0,13,0.00,,,0.00,484.000000,,2013-08-19 00:21:00,
2013-08-18 18:32:00,85.0,29.0,-100.00,WNW,303,6.0,16.0,13,0.00,,,0.00,484.000000,,2013-08-19 00:32:00,
2013-08-18 18:42:00,85.0,29.0,-100.00,WNW,303,6.0,16.0,13,0.00,,,0.00,484.000000,,2013-08-19 00:42:00,
2013-08-18 18:52:00,85.0,29.0,-100.00,WNW,303,6.0,16.0,13,0.00,,,0.00,484.000000,,2013-08-19 00:52:00,
2013-08-18 19:22:00,83.0,27.0,-100.00,SW,220,6.0,18.0,13,0.00,,,0.00,293.000000,,2013-08-19 01:22:00,
2013-08-18 19:32:00,83.0,27.0,-100.00,SW,220,6.0,18.0,13,0.00,,,0.00,293.000000,,2013-08-19 01:32:00,
2013-08-18 19:41:00,83.0,27.0,-100.00,SW,220,6.0,18.0,13,0.00,,,0.00,293.000000,,2013-08-19 01:41:00,
2013-08-18 19:52:00,83.0,27.0,-100.00,SW,220,6.0,18.0,13,0.00,,,0.00,293.000000,,2013-08-19 01:52:00,
2013-08-18 20:42:00,72.0,33.0,-100.00,WNW,297,3.0,9.0,24,0.00,,,0.00,82.000000,,2013-08-19 02:42:00,
2013-08-18 20:52:00,72.0,33.0,-100.00,WNW,297,3.0,9.0,24,0.00,,,0.00,82.000000,,2013-08-19 02:52:00,
2013-08-18 21:21:00,66.0,32.0,-100.00,WNW,291,4.0,7.0,28,0.00,,,0.00,5.000000,,2013-08-19 03:21:00,
2013-08-18 21:33:00,66.0,32.0,-100.00,WNW,291,4.0,7.0,28,0.00,,,0.00,5.000000,,2013-08-19 03:33:00,
2013-08-18 21:42:00,66.0,32.0,-100.00,WNW,291,4.0,7.0,28,0.00,,,0.00,5.000000,,2013-08-19 03:42:00,
2013-08-18 21:53:00,66.0,32.0,-100.00,WNW,291,4.0,7.0,28,0.00,,,0.00,5.000000,,2013-08-19 03:53:00,
2013-08-18 22:23:00,63.0,32.0,-100.00,WSW,257,1.0,6.0,31,0.00,,,0.00,1.000000,,2013-08-19 04:23:00,
2013-08-18 22:33:00,63.0,32.0,-100.00,WSW,257,1.0,6.0,31,0.00,,,0.00,1.000000,,2013-08-19 04:33:00,
2013-08-18 22:42:00,63.0,32.0,-100.00,WSW,257,1.0,6.0,31,0.00,,,0.00,1.000000,,2013-08-19 04:42:00,
2013-08-18 22:53:00,63.0,32.0,-100.00,WSW,257,1.0,6.0,31,0.00,,,0.00,1.000000,,2013-08-19 04:53:00,
2013-08-18 23:22:00,59.0,31.0,-100.00,SW,232,2.0,5.0,35,0.00,,,0.00,1.000000,,2013-08-19 05:22:00,
2013-08-18 23:33:00,59.0,31.0,-100.00,SW,232,2.0,5.0,35,0.00,,,0.00,1.000000,,2013-08-19 05:33:00,
2013-08-18 23:42:00,59.0,31.0,-100.00,SW,232,2.0,5.0,35,0.00,,,0.00,1.000000,,2013-08-19 05:42:00,
2013-08-18 23:52:00,59.0,31.0,-100.00,SW,232,2.0,5.0,35,0.00,,,0.00,1.000000,,2013-08-19 05:52:00,